TimeCDT,TemperatureF,Dew PointF,Humidity,Sea Level PressureIn,VisibilityMPH,Wind Direction,Wind SpeedMPH,Gust SpeedMPH,PrecipitationIn,Events,Conditions,WindDirDegrees,DateUTC
12:15 AM,59.4,52.9,79,30.17,10.0,SE,4.6,-,N/A,,Overcast,130,2013-09-21 05:15:00
12:35 AM,59.4,52.5,78,30.17,10.0,SE,5.8,-,N/A,,Overcast,130,2013-09-21 05:35:00
12:55 AM,58.5,52.5,81,30.17,10.0,ESE,3.5,-,N/A,,Overcast,110,2013-09-21 05:55:00
1:15 AM,57.6,52.0,82,30.17,10.0,SSE,8.1,-,N/A,,Scattered Clouds,150,2013-09-21 06:15:00
1:35 AM,57.4,51.8,82,30.16,10.0,SSE,4.6,-,N/A,,Clear,160,2013-09-21 06:35:00
1:55 AM,56.5,51.4,83,30.16,10.0,SSE,5.8,-,N/A,,Clear,160,2013-09-21 06:55:00
2:15 AM,56.3,51.4,84,30.15,10.0,SSE,4.6,-,N/A,,Clear,150,2013-09-21 07:15:00
2:35 AM,55.0,51.1,86,30.15,10.0,SSE,3.5,-,N/A,,Clear,150,2013-09-21 07:35:00
2:55 AM,55.4,50.9,85,30.15,10.0,WNW,6.9,-,N/A,,Clear,300,2013-09-21 07:55:00
3:15 AM,54.7,50.9,87,30.15,10.0,West,3.5,-,N/A,,Clear,270,2013-09-21 08:15:00
3:35 AM,55.0,50.4,84,30.15,10.0,Calm,Calm,-,N/A,,Clear,0,2013-09-21 08:35:00
3:55 AM,53.8,50.0,87,30.15,10.0,WSW,3.5,-,N/A,,Clear,250,2013-09-21 08:55:00
4:15 AM,53.6,50.0,88,30.15,10.0,West,3.5,-,N/A,,Clear,260,2013-09-21 09:15:00
4:35 AM,52.2,49.1,89,30.15,10.0,WSW,4.6,-,N/A,,Clear,250,2013-09-21 09:35:00
4:55 AM,52.2,49.1,89,30.14,10.0,WSW,4.6,-,N/A,,Clear,250,2013-09-21 09:55:00
5:15 AM,52.0,49.1,90,30.14,10.0,WSW,4.6,-,N/A,,Clear,240,2013-09-21 10:15:00
5:35 AM,52.5,48.7,87,30.14,10.0,Calm,Calm,-,N/A,,Clear,0,2013-09-21 10:35:00
5:55 AM,52.5,49.6,90,30.14,10.0,South,3.5,-,N/A,,Clear,180,2013-09-21 10:55:00
6:15 AM,52.0,49.3,90,30.14,10.0,Calm,Calm,-,N/A,,Clear,0,2013-09-21 11:15:00
6:35 AM,51.4,48.7,90,30.13,10.0,SSE,5.8,-,N/A,,Clear,160,2013-09-21 11:35:00
6:55 AM,50.4,48.0,92,30.14,10.0,SSW,3.5,-,N/A,,Clear,200,2013-09-21 11:55:00
7:15 AM,49.8,47.5,92,30.14,10.0,Calm,Calm,-,N/A,,Clear,0,2013-09-21 12:15:00
7:35 AM,49.6,47.3,92,30.14,10.0,WSW,3.5,-,N/A,,Clear,250,2013-09-21 12:35:00
7:55 AM,50.2,47.7,91,30.15,10.0,WSW,4.6,-,N/A,,Clear,240,2013-09-21 12:55:00
8:15 AM,52.7,50.0,91,30.15,10.0,SW,4.6,-,N/A,,Clear,230,2013-09-21 13:15:00
8:35 AM,54.7,51.1,88,30.15,7.0,WSW,5.8,-,N/A,,Clear,240,2013-09-21 13:35:00
8:55 AM,56.5,51.4,83,30.15,10.0,SW,5.8,-,N/A,,Clear,230,2013-09-21 13:55:00
9:15 AM,58.1,51.1,77,30.15,10.0,SSW,6.9,-,N/A,,Clear,210,2013-09-21 14:15:00
9:35 AM,59.7,50.9,73,30.15,10.0,SSW,9.2,-,N/A,,Clear,200,2013-09-21 14:35:00
9:55 AM,61.7,50.2,66,30.16,10.0,SSW,9.2,-,N/A,,Clear,200,2013-09-21 14:55:00
10:15 AM,63.1,50.2,63,30.16,10.0,SW,10.4,-,N/A,,Scattered Clouds,220,2013-09-21 15:15:00
10:35 AM,64.9,50.5,60,30.16,10.0,South,8.1,-,N/A,,Scattered Clouds,190,2013-09-21 15:35:00
10:55 AM,67.1,50.7,56,30.15,10.0,SSW,8.1,-,N/A,,Clear,200,2013-09-21 15:55:00
11:15 AM,68.5,50.9,53,30.14,10.0,SW,8.1,-,N/A,,Clear,220,2013-09-21 16:15:00
11:35 AM,70.2,51.6,52,30.14,10.0,SW,11.5,-,N/A,,Clear,230,2013-09-21 16:35:00
11:55 AM,70.9,52.2,51,30.14,10.0,SSW,8.1,-,N/A,,Clear,210,2013-09-21 16:55:00
12:15 PM,72.0,52.7,51,30.13,10.0,SSW,10.4,-,N/A,,Clear,210,2013-09-21 17:15:00
12:35 PM,72.7,52.5,49,30.13,10.0,SSW,6.9,-,N/A,,Clear,200,2013-09-21 17:35:00
12:55 PM,74.7,52.7,46,30.12,10.0,SSW,11.5,17.3,N/A,,Clear,210,2013-09-21 17:55:00
1:15 PM,74.7,52.3,46,30.11,10.0,SSW,9.2,-,N/A,,Clear,200,2013-09-21 18:15:00
1:35 PM,76.1,52.5,44,30.10,10.0,SSW,10.4,16.1,N/A,,Clear,210,2013-09-21 18:35:00
1:55 PM,76.8,52.5,43,30.09,10.0,SSE,6.9,17.3,N/A,,Clear,160,2013-09-21 18:55:00
2:15 PM,77.2,52.0,41,30.08,10.0,SSW,9.2,17.3,N/A,,Clear,200,2013-09-21 19:15:00
2:35 PM,78.4,52.5,40,30.07,10.0,SSW,10.4,17.3,N/A,,Clear,210,2013-09-21 19:35:00
2:55 PM,78.6,52.2,40,30.05,10.0,SSW,13.8,19.6,N/A,,Clear,210,2013-09-21 19:55:00
3:15 PM,79.5,52.2,38,30.04,10.0,South,11.5,21.9,N/A,,Clear,190,2013-09-21 20:15:00
3:35 PM,80.1,52.2,38,30.04,10.0,South,13.8,-,N/A,,Clear,190,2013-09-21 20:35:00
3:55 PM,80.2,52.2,38,30.03,10.0,SW,8.1,-,N/A,,Clear,230,2013-09-21 20:55:00
4:15 PM,81.5,52.2,36,30.02,10.0,SSW,8.1,21.9,N/A,,Scattered Clouds,210,2013-09-21 21:15:00
4:35 PM,81.1,52.0,36,30.01,10.0,SSW,16.1,20.7,N/A,,Clear,210,2013-09-21 21:35:00
4:55 PM,81.5,51.3,35,30.00,10.0,SSW,12.7,21.9,N/A,,Clear,210,2013-09-21 21:55:00
5:15 PM,81.9,51.4,35,30.00,10.0,SSW,10.4,17.3,N/A,,Clear,200,2013-09-21 22:15:00
5:35 PM,81.9,51.4,35,29.99,10.0,SSW,12.7,17.3,N/A,,Clear,200,2013-09-21 22:35:00
5:55 PM,81.5,51.1,35,29.99,10.0,SW,9.2,-,N/A,,Scattered Clouds,220,2013-09-21 22:55:00
6:15 PM,81.3,51.4,35,29.98,10.0,SSW,8.1,16.1,N/A,,Clear,210,2013-09-21 23:15:00
6:35 PM,80.8,51.8,36,29.98,10.0,SW,9.2,-,N/A,,Clear,230,2013-09-21 23:35:00
6:55 PM,80.1,51.8,37,29.98,10.0,SSW,10.4,-,N/A,,Clear,200,2013-09-21 23:55:00
7:15 PM,78.3,52.0,40,29.97,10.0,South,9.2,-,N/A,,Clear,190,2013-09-22 00:15:00
7:35 PM,76.3,52.7,44,29.98,10.0,South,9.2,-,N/A,,Clear,180,2013-09-22 00:35:00
7:55 PM,73.8,52.9,48,29.97,10.0,South,8.1,-,N/A,,Clear,180,2013-09-22 00:55:00
8:15 PM,72.0,53.2,52,29.97,10.0,South,8.1,-,N/A,,Clear,170,2013-09-22 01:15:00
8:35 PM,69.4,53.6,57,29.98,10.0,Calm,Calm,-,N/A,,Clear,0,2013-09-22 01:35:00
8:55 PM,69.6,53.4,56,29.98,10.0,South,5.8,-,N/A,,Clear,190,2013-09-22 01:55:00
9:15 PM,67.3,53.6,61,29.99,10.0,SSW,5.8,-,N/A,,Clear,200,2013-09-22 02:15:00
9:35 PM,66.7,53.8,63,29.99,10.0,South,5.8,-,N/A,,Clear,190,2013-09-22 02:35:00
9:55 PM,63.0,53.6,71,29.99,10.0,South,4.6,-,N/A,,Clear,180,2013-09-22 02:55:00
10:15 PM,62.1,53.4,73,30.00,10.0,South,5.8,-,N/A,,Clear,190,2013-09-22 03:15:00
10:35 PM,61.3,53.2,75,30.00,10.0,South,5.8,-,N/A,,Clear,190,2013-09-22 03:35:00
10:55 PM,61.5,53.1,74,30.00,10.0,South,6.9,-,N/A,,Clear,190,2013-09-22 03:55:00
11:15 PM,61.2,53.6,76,30.00,10.0,South,6.9,-,N/A,,Clear,190,2013-09-22 04:15:00
11:35 PM,61.3,53.6,76,30.00,10.0,South,6.9,-,N/A,,Clear,190,2013-09-22 04:35:00
11:55 PM,59.5,53.6,81,30.00,10.0,South,8.1,-,N/A,,Clear,170,2013-09-22 04:55:00